Time,TemperatureF,DewpointF,PressureIn,WindDirection,WindDirectionDegrees,WindSpeedMPH,WindSpeedGustMPH,Humidity,HourlyPrecipIn,Conditions,Clouds,dailyrainin,SoftwareType,DateUTC
2013-01-31 00:01:00,11.0,8.0,-100.00,NNW,330,8.0,14.0,89,-99.99,,,-99.99,,2013-01-31 06:01:00,
2013-01-31 00:10:00,11.0,8.0,-100.00,NNW,330,8.0,14.0,89,-99.99,,,-99.99,,2013-01-31 06:10:00,
2013-01-31 07:31:00,2.0,0.0,-100.00,NW,325,5.0,13.0,88,-99.99,,,-99.99,,2013-01-31 13:31:00,
2013-01-31 08:02:00,3.0,0.0,-100.00,NNW,335,7.0,12.0,88,-99.99,,,-99.99,,2013-01-31 14:02:00,
2013-01-31 08:11:00,3.0,0.0,-100.00,NNW,335,7.0,12.0,88,-99.99,,,-99.99,,2013-01-31 14:11:00,
2013-01-31 08:42:00,3.0,0.0,-100.00,NW,325,7.0,13.0,87,-99.99,,,-99.99,,2013-01-31 14:42:00,
2013-01-31 08:52:00,3.0,0.0,-100.00,NW,325,7.0,13.0,87,-99.99,,,-99.99,,2013-01-31 14:52:00,
2013-01-31 09:03:00,3.0,0.0,-100.00,NW,325,7.0,13.0,87,-99.99,,,-99.99,,2013-01-31 15:03:00,
2013-01-31 09:12:00,3.0,0.0,-100.00,NW,325,7.0,13.0,87,-99.99,,,-99.99,,2013-01-31 15:12:00,
2013-01-31 10:42:00,7.0,2.0,-100.00,NNW,330,11.0,19.0,79,-99.99,,,-99.99,,2013-01-31 16:42:00,
2013-01-31 10:52:00,7.0,2.0,-100.00,NNW,330,11.0,19.0,79,-99.99,,,-99.99,,2013-01-31 16:52:00,
2013-01-31 11:02:00,7.0,2.0,-100.00,NNW,330,11.0,19.0,79,-99.99,,,-99.99,,2013-01-31 17:02:00,
2013-01-31 11:12:00,7.0,2.0,-100.00,NNW,330,11.0,19.0,79,-99.99,,,-99.99,,2013-01-31 17:12:00,
2013-01-31 11:44:00,9.0,3.0,-100.00,NNW,335,11.0,19.0,76,-99.99,,,-99.99,,2013-01-31 17:44:00,
2013-01-31 11:53:00,9.0,3.0,-100.00,NNW,335,11.0,19.0,76,-99.99,,,-99.99,,2013-01-31 17:53:00,
2013-01-31 12:03:00,9.0,3.0,-100.00,NNW,335,11.0,19.0,76,-99.99,,,-99.99,,2013-01-31 18:03:00,
2013-01-31 12:12:00,9.0,3.0,-100.00,NNW,335,11.0,19.0,76,-99.99,,,-99.99,,2013-01-31 18:12:00,
2013-01-31 12:43:00,10.0,1.0,-100.00,NNW,330,14.0,24.0,69,-99.99,,,-99.99,,2013-01-31 18:43:00,
2013-01-31 12:52:00,10.0,1.0,-100.00,NNW,330,14.0,24.0,69,-99.99,,,-99.99,,2013-01-31 18:52:00,
2013-01-31 13:02:00,10.0,1.0,-100.00,NNW,330,14.0,24.0,69,-99.99,,,-99.99,,2013-01-31 19:02:00,
2013-01-31 13:12:00,10.0,1.0,-100.00,NNW,330,14.0,24.0,69,-99.99,,,-99.99,,2013-01-31 19:12:00,
2013-01-31 13:43:00,9.0,0.0,-100.00,NNW,340,16.0,22.0,67,-99.99,,,-99.99,,2013-01-31 19:43:00,
2013-01-31 13:52:00,9.0,0.0,-100.00,NNW,340,16.0,22.0,67,-99.99,,,-99.99,,2013-01-31 19:52:00,
2013-01-31 14:02:00,9.0,0.0,-100.00,NNW,340,16.0,22.0,67,-99.99,,,-99.99,,2013-01-31 20:02:00,
2013-01-31 14:11:00,9.0,0.0,-100.00,NNW,340,16.0,22.0,67,-99.99,,,-99.99,,2013-01-31 20:11:00,
2013-01-31 14:42:00,9.0,-2.0,-100.00,NW,325,14.0,24.0,61,-99.99,,,-99.99,,2013-01-31 20:42:00,
2013-01-31 14:52:00,9.0,-2.0,-100.00,NW,325,14.0,24.0,61,-99.99,,,-99.99,,2013-01-31 20:52:00,
2013-01-31 15:02:00,9.0,-2.0,-100.00,NW,325,14.0,24.0,61,-99.99,,,-99.99,,2013-01-31 21:02:00,
2013-01-31 15:12:00,9.0,-2.0,-100.00,NW,325,14.0,24.0,61,-99.99,,,-99.99,,2013-01-31 21:12:00,
2013-01-31 15:52:00,7.0,-3.0,-100.00,NNW,335,12.0,25.0,62,-99.99,,,-99.99,,2013-01-31 21:52:00,
2013-01-31 16:03:00,7.0,-3.0,-100.00,NNW,335,12.0,25.0,62,-99.99,,,-99.99,,2013-01-31 22:03:00,
2013-01-31 16:11:00,7.0,-3.0,-100.00,NNW,335,12.0,25.0,62,-99.99,,,-99.99,,2013-01-31 22:11:00,
2013-01-31 16:12:00,6.0,-3.0,-100.00,NNW,335,11.0,19.0,64,-99.99,,,-99.99,,2013-01-31 22:12:00,
2013-01-31 16:22:00,7.0,-3.0,-100.00,NNW,335,12.0,25.0,62,-99.99,,,-99.99,,2013-01-31 22:22:00,
2013-01-31 16:33:00,6.0,-3.0,-100.00,NNW,335,11.0,19.0,64,-99.99,,,-99.99,,2013-01-31 22:33:00,
2013-01-31 16:42:00,6.0,-3.0,-100.00,NNW,335,11.0,19.0,64,-99.99,,,-99.99,,2013-01-31 22:42:00,
2013-01-31 16:52:00,6.0,-3.0,-100.00,NNW,335,11.0,19.0,64,-99.99,,,-99.99,,2013-01-31 22:52:00,
2013-01-31 17:02:00,6.0,-3.0,-100.00,NNW,335,11.0,19.0,64,-99.99,,,-99.99,,2013-01-31 23:02:00,
2013-01-31 17:11:00,5.0,-3.0,-100.00,NW,315,8.0,17.0,69,-99.99,,,-99.99,,2013-01-31 23:11:00,
2013-01-31 17:32:00,5.0,-3.0,-100.00,NW,315,8.0,17.0,69,-99.99,,,-99.99,,2013-01-31 23:32:00,
2013-01-31 17:42:00,5.0,-3.0,-100.00,NW,315,8.0,17.0,69,-99.99,,,-99.99,,2013-01-31 23:42:00,
2013-01-31 17:52:00,5.0,-3.0,-100.00,NW,315,8.0,17.0,69,-99.99,,,-99.99,,2013-01-31 23:52:00,
2013-01-31 18:01:00,5.0,-3.0,-100.00,NW,315,8.0,17.0,69,-99.99,,,-99.99,,2013-02-01 00:01:00,
2013-01-31 18:42:00,4.0,-2.0,-100.00,NW,320,6.0,14.0,76,-99.99,,,-99.99,,2013-02-01 00:42:00,
2013-01-31 18:52:00,4.0,-2.0,-100.00,NW,320,6.0,14.0,76,-99.99,,,-99.99,,2013-02-01 00:52:00,
2013-01-31 19:01:00,4.0,-2.0,-100.00,NW,320,6.0,14.0,76,-99.99,,,-99.99,,2013-02-01 01:01:00,
2013-01-31 19:11:00,4.0,-2.0,-100.00,NW,320,6.0,14.0,76,-99.99,,,-99.99,,2013-02-01 01:11:00,
2013-01-31 19:32:00,3.0,-2.0,-100.00,NW,310,7.0,14.0,77,-99.99,,,-99.99,,2013-02-01 01:32:00,
2013-01-31 19:42:00,3.0,-2.0,-100.00,NW,310,7.0,14.0,77,-99.99,,,-99.99,,2013-02-01 01:42:00,
2013-01-31 19:52:00,3.0,-2.0,-100.00,NW,310,7.0,14.0,77,-99.99,,,-99.99,,2013-02-01 01:52:00,
2013-01-31 20:02:00,3.0,-2.0,-100.00,NW,310,7.0,14.0,77,-99.99,,,-99.99,,2013-02-01 02:02:00,
2013-01-31 20:11:00,3.0,-2.0,-100.00,NW,310,7.0,14.0,77,-99.99,,,-99.99,,2013-02-01 02:11:00,
2013-01-31 20:32:00,2.0,-3.0,-100.00,NW,320,6.0,12.0,78,-99.99,,,-99.99,,2013-02-01 02:32:00,
2013-01-31 20:42:00,2.0,-3.0,-100.00,NW,320,6.0,12.0,78,-99.99,,,-99.99,,2013-02-01 02:42:00,
2013-01-31 20:52:00,2.0,-3.0,-100.00,NW,320,6.0,12.0,78,-99.99,,,-99.99,,2013-02-01 02:52:00,
2013-01-31 21:02:00,2.0,-3.0,-100.00,NW,320,6.0,12.0,78,-99.99,,,-99.99,,2013-02-01 03:02:00,
2013-01-31 21:12:00,2.0,-3.0,-100.00,NW,320,6.0,12.0,78,-99.99,,,-99.99,,2013-02-01 03:12:00,
2013-01-31 21:33:00,2.0,-3.0,-100.00,NNW,335,6.0,17.0,79,-99.99,,,-99.99,,2013-02-01 03:33:00,
2013-01-31 21:42:00,2.0,-3.0,-100.00,NNW,335,6.0,17.0,79,-99.99,,,-99.99,,2013-02-01 03:42:00,
2013-01-31 21:52:00,2.0,-3.0,-100.00,NNW,335,6.0,17.0,79,-99.99,,,-99.99,,2013-02-01 03:52:00,
2013-01-31 22:02:00,2.0,-3.0,-100.00,NNW,335,6.0,17.0,79,-99.99,,,-99.99,,2013-02-01 04:02:00,
2013-01-31 22:11:00,2.0,-3.0,-100.00,NNW,335,6.0,17.0,79,-99.99,,,-99.99,,2013-02-01 04:11:00,
2013-01-31 22:32:00,2.0,-3.0,-100.00,NNW,335,9.0,19.0,79,-99.99,,,-99.99,,2013-02-01 04:32:00,
2013-01-31 22:42:00,2.0,-3.0,-100.00,NNW,335,9.0,19.0,79,-99.99,,,-99.99,,2013-02-01 04:42:00,
2013-01-31 22:52:00,2.0,-3.0,-100.00,NNW,335,9.0,19.0,79,-99.99,,,-99.99,,2013-02-01 04:52:00,
2013-01-31 23:03:00,2.0,-3.0,-100.00,NNW,335,9.0,19.0,79,-99.99,,,-99.99,,2013-02-01 05:03:00,
2013-01-31 23:32:00,1.0,-4.0,-100.00,NW,310,8.0,17.0,79,-99.99,,,-99.99,,2013-02-01 05:32:00,
2013-01-31 23:42:00,1.0,-4.0,-100.00,NW,310,8.0,17.0,79,-99.99,,,-99.99,,2013-02-01 05:42:00,
2013-01-31 23:52:00,1.0,-4.0,-100.00,NW,310,8.0,17.0,79,-99.99,,,-99.99,,2013-02-01 05:52:00,